Regional Weather Roundup
Issued by NWS

Home | Current Version | Previous Version | Graphics & Text | Print | Product List | Glossary On
Versions: 1 2 3 4 5 6 7 8 9 10 11 12 13 14 15 16 17 18 19 20 21 22 23 24 25 26 27 28 29 30 31 32 33 34 35 36 37 38 39 40 41 42 43 44 45 46 47 48 49 50
000
ASUS43 KOAX 140010
RWRNE

WEATHER ROUNDUP FOR NEBRASKA
NATIONAL WEATHER SERVICE OMAHA NE
700 PM CDT SUN JUL 13 2014

NOTES: SATELLITE DATA IS BEING USED TO AUGMENT CLOUD COVER ABOVE
       12000 FEET.
       "FAIR" INDICATES FEW OR NO CLOUDS BELOW 12,000 FEET WITH NO
       SIGNIFICANT WEATHER AND/OR OBSTRUCTIONS TO VISIBILITY.

  * THESE STATIONS DO NOT REPORT WEATHER SUCH AS RAIN...SNOW OR FOG.

NEZ001>004-019>022-054>056-140100-
NEBRASKA PANHANDLE

CITY           SKY/WX    TMP DP  RH WIND       PRES   REMARKS
SCOTTSBLUFF    SUNNY     86  57  37 W6        30.14F
6HR MIN TEMP:  77; 6HR MAX TEMP:  88; 6HR PCP: TRACE;

ALLIANCE       PTSUNNY   84  52  33 W6        30.13F
6HR MIN TEMP:  79; 6HR MAX TEMP:  88;

CHADRON        PTSUNNY   84  58  40 NE8       30.09S THUNDER
6HR MIN TEMP:  83; 6HR MAX TEMP:  93;

KIMBALL        LGT RAIN  77  56  47 CALM      30.22S
SIDNEY         PTSUNNY   78  60  53 SW3       30.20F
6HR MIN TEMP:  70; 6HR MAX TEMP:  88; 6HR PCP:  0.03;

$$

NEZ057>060-069>072-079>082-140100-
SOUTHWEST NEBRASKA

CITY           SKY/WX    TMP DP  RH WIND       PRES   REMARKS
NORTH PLATTE   MOSUNNY   86  54  33 SW5       30.07F
6HR MIN TEMP:  84; 6HR MAX TEMP:  89;

IMPERIAL       CLOUDY    75  62  64 SW7       30.14F
6HR MIN TEMP:  68; 6HR MAX TEMP:  87; 6HR PCP:  0.02;

LEXINGTON      MOSUNNY   87  56  34 W3        30.06S
MCCOOK         PTSUNNY   83  62  49 S5        30.08S
6HR MIN TEMP:  83; 6HR MAX TEMP:  90;

OGALLALA       PTSUNNY   85  49  29 S6        30.11F HAZE
$$

NEZ005>010-023>029-035>040-094-140100-
NORTH CENTRAL NEBRASKA

CITY           SKY/WX    TMP DP  RH WIND       PRES   REMARKS
VALENTINE      SUNNY     85  54  34 N9        30.06F
6HR MIN TEMP:  81; 6HR MAX TEMP:  86;

AINSWORTH      SUNNY     82  51  33 NW12      30.07F
BROKEN BOW     SUNNY     84  62  47 N6        30.06F
6HR MIN TEMP:  83; 6HR MAX TEMP:  87;

O`NEILL        SUNNY     82  59  44 W6        30.02F
ORD            SUNNY     83  62  49 N5        30.03S
6HR MIN TEMP:  81; 6HR MAX TEMP:  85;

THEDFORD       SUNNY     85  55  35 N6        30.09S
$$

NEZ041-046>049-061>064-073>077-083>087-140100-
SOUTH CENTRAL NEBRASKA

CITY           SKY/WX    TMP DP  RH WIND       PRES   REMARKS
GRAND ISLAND   SUNNY     86  64  47 N10       30.02F
6HR MIN TEMP:  84; 6HR MAX TEMP:  90;

AURORA         SUNNY     85  67  55 N5        30.01F
HASTINGS       SUNNY     87  59  38 NW5       30.03F
6HR MIN TEMP:  83; 6HR MAX TEMP:  88;

HEBRON         SUNNY     87  64  45 W3        30.01F
HOLDREGE       MOSUNNY   83  60  44 CALM      30.06S
KEARNEY *      MOSUNNY   86  61  42 N9        30.05S
YORK           MOSUNNY   84  66  54 NE3       30.01F
$$

NEZ011>018-030>034-042>045-140100-
NORTHEAST NEBRASKA

CITY           SKY/WX    TMP DP  RH WIND       PRES   REMARKS
NORFOLK        SUNNY     84  57  39 W8        29.99F
6HR MIN TEMP:  71; 6HR MAX TEMP:  85; 6HR PCP:  0.04;

ALBION         SUNNY     83  60  46 N5        30.02F
BLAIR          PTSUNNY   80  64  58 CALM      29.98F
FREMONT        SUNNY     85  66  51 NW5       29.99S
TEKAMAH        SUNNY     83  62  49 N5        29.96F
6HR MIN TEMP:  83; 6HR MAX TEMP:  90; 6HR PCP: TRACE;

WAYNE          SUNNY     83  66  56 W7        29.99S
$$

NEZ050>053-065>068-078-088>093-140100-
SOUTHEAST NEBRASKA

CITY           SKY/WX    TMP DP  RH WIND       PRES   REMARKS
LINCOLN        MOSUNNY   88  67  49 CALM      30.00S HX  91
6HR MIN TEMP:  77; 6HR MAX TEMP:  92; 6HR PCP:  0.06;

OMAHA EPPLEY   PTSUNNY   82  67  60 W5        29.97F
6HR MIN TEMP:  81; 6HR MAX TEMP:  90; 6HR PCP: TRACE;

BEATRICE       MOSUNNY   84  65  51 NW7       29.99F
FALLS CITY     SUNNY     87  69  54 CALM      29.96F HX  91
6HR MIN TEMP:  83; 6HR MAX TEMP:  88;

NEBRASKA CITY  MOSUNNY   81  68  63 CALM      29.98S
PLATTSMOUTH    MOSUNNY   83  65  54 N3        29.98F
$$

NEZ044-045-051>053-067-140100-
OMAHA AREA

CITY           SKY/WX    TMP DP  RH WIND       PRES   REMARKS
OMAHA EPPLEY   PTSUNNY   82  67  60 W5        29.97F
6HR MIN TEMP:  81; 6HR MAX TEMP:  90; 6HR PCP: TRACE;

BLAIR          PTSUNNY   80  64  58 CALM      29.98F
FREMONT        SUNNY     85  66  51 NW5       29.99S
MILLARD        MOSUNNY   82  68  62 NW3       29.97F
OFFUTT AFB     MOSUNNY   83  72  68 NW5       29.97F
PLATTSMOUTH    MOSUNNY   83  65  54 N3        29.98F
WAHOO          FAIR      84  68  58 W3        29.99S
$$



USA.gov is the U.S. government's official web portal to all federal, state and local government web resources and services.